• En España
  • Lista de países
  • Para 7 días
  • Temperatura del agua
  • Mapa Satelital
  • El tiempo en el mapa
  • Informadores
  • user-avatar
    Iniciar sesión

    Tiempo cada hora Uige

    Hoy, 22 Febrero, Jueves

    Tiempo Temperatura Precipitaciones Viento Presión Humedad
    00:00 +22°C° 0,4 mm 1 mps 689 mmHg 97%
    01:00 +22°C° 0 mm 1 mps 689 mmHg 98%
    02:00 +22°C° 0,5 mm 1 mps 689 mmHg 98%
    03:00 +21°C° 0,5 mm 1 mps 689 mmHg 98%
    04:00 +21°C° 0,5 mm 1 mps 689 mmHg 98%
    05:00 +22°C° 0,3 mm 1 mps 689 mmHg 98%
    06:00 +22°C° 0,3 mm 1 mps 689 mmHg 98%
    07:00 +22°C° 0 mm 1 mps 689 mmHg 97%
    08:00 +24°C° 0,1 mm 1 mps 690 mmHg 89%
    09:00 +25°C° 0,1 mm 1 mps 690 mmHg 81%
    10:00 +27°C° 0,1 mm 2 mps 690 mmHg 73%
    11:00 +28°C° 0,6 mm 2 mps 690 mmHg 73%
    12:00 +28°C° 0,6 mm 2 mps 690 mmHg 73%
    13:00 +29°C° 0,6 mm 2 mps 689 mmHg 73%
    14:00 +28°C° 1,2 mm 2 mps 688 mmHg 77%
    15:00 +28°C° 1,2 mm 2 mps 688 mmHg 80%
    16:00 +27°C° 1,2 mm 2 mps 687 mmHg 84%
    17:00 +26°C° 0,7 mm 2 mps 688 mmHg 88%
    18:00 +24°C° 0,7 mm 1 mps 688 mmHg 93%
    19:00 +23°C° 0,7 mm 1 mps 688 mmHg 97%
    20:00 +23°C° 0,4 mm 1 mps 688 mmHg 97%
    21:00 +22°C° 0,4 mm 1 mps 689 mmHg 98%
    22:00 +22°C° 0,4 mm 1 mps 689 mmHg 98%
    23:00 +22°C° 0,8 mm 1 mps 689 mmHg 98%

    Mañana, 23 Febrero, Viernes

    Tiempo Temperatura Precipitaciones Viento Presión Humedad
    00:00 +22°C° 0,8 mm 1 mps 689 mmHg 98%
    01:00 +22°C° 0,8 mm 1 mps 689 mmHg 98%
    02:00 +22°C° 0 mm 1 mps 689 mmHg 98%
    03:00 +21°C° 0 mm 1 mps 689 mmHg 98%
    04:00 +21°C° 0 mm 1 mps 688 mmHg 98%
    05:00 +21°C° 0 mm 1 mps 689 mmHg 98%
    06:00 +22°C° 0 mm 1 mps 689 mmHg 97%
    07:00 +22°C° 0 mm 1 mps 689 mmHg 97%
    08:00 +24°C° 0,1 mm 1 mps 690 mmHg 88%
    09:00 +26°C° 0,1 mm 1 mps 690 mmHg 79%
    10:00 +28°C° 0,1 mm 1 mps 691 mmHg 70%
    11:00 +28°C° 0,4 mm 1 mps 690 mmHg 68%
    12:00 +29°C° 0,4 mm 2 mps 690 mmHg 66%
    13:00 +30°C° 0,4 mm 2 mps 689 mmHg 63%
    14:00 +28°C° 1 mm 2 mps 689 mmHg 72%
    15:00 +27°C° 1 mm 2 mps 688 mmHg 81%
    16:00 +26°C° 1 mm 1 mps 688 mmHg 89%
    17:00 +25°C° 0,6 mm 1 mps 688 mmHg 91%
    18:00 +24°C° 0,6 mm 1 mps 689 mmHg 93%
    19:00 +23°C° 0,6 mm 1 mps 689 mmHg 95%
    20:00 +22°C° 0,9 mm 1 mps 690 mmHg 96%
    21:00 +22°C° 0,9 mm 1 mps 690 mmHg 96%
    22:00 +22°C° 0,9 mm 1 mps 691 mmHg 96%
    23:00 +22°C° 1,1 mm 1 mps 691 mmHg 97%

    Pasado mañana, 24 Febrero, Sábado

    Tiempo Temperatura Precipitaciones Viento Presión Humedad
    00:00 +20°C° 1,1 mm 0 mps 690 mmHg 98%
    01:00 +20°C° 1,1 mm 0 mps 690 mmHg 98%
    02:00 +20°C° 0,7 mm 0 mps 690 mmHg 98%
    03:00 +21°C° 0,7 mm 1 mps 689 mmHg 99%
    04:00 +21°C° 0,7 mm 1 mps 689 mmHg 99%
    05:00 +21°C° 0,1 mm 1 mps 689 mmHg 98%
    06:00 +22°C° 0,1 mm 1 mps 690 mmHg 98%
    07:00 +22°C° 0,1 mm 1 mps 690 mmHg 98%
    08:00 +23°C° 0 mm 1 mps 691 mmHg 94%
    09:00 +24°C° 0 mm 1 mps 691 mmHg 90%
    10:00 +24°C° 0 mm 1 mps 692 mmHg 87%
    11:00 +25°C° 0,2 mm 1 mps 691 mmHg 82%
    12:00 +26°C° 0,2 mm 1 mps 691 mmHg 78%
    13:00 +27°C° 0,2 mm 1 mps 690 mmHg 74%
    14:00 +27°C° 0,4 mm 1 mps 690 mmHg 74%
    15:00 +27°C° 0,4 mm 1 mps 689 mmHg 74%
    16:00 +28°C° 0,4 mm 1 mps 689 mmHg 74%
    17:00 +26°C° 0,5 mm 1 mps 689 mmHg 81%
    18:00 +24°C° 0,5 mm 1 mps 689 mmHg 87%
    19:00 +23°C° 0,5 mm 1 mps 690 mmHg 94%
    20:00 +22°C° 0,5 mm 1 mps 690 mmHg 94%
    21:00 +22°C° 0,5 mm 1 mps 691 mmHg 95%
    22:00 +22°C° 0,5 mm 1 mps 692 mmHg 96%
    23:00 +22°C° 0,1 mm 1 mps 691 mmHg 96%

    25 Febrero, Domingo

    Tiempo Temperatura Precipitaciones Viento Presión Humedad
    00:00 +21°C° 0,1 mm 1 mps 691 mmHg 97%
    01:00 +21°C° 0,1 mm 1 mps 691 mmHg 97%
    02:00 +21°C° 0 mm 1 mps 691 mmHg 97%
    03:00 +21°C° 0 mm 1 mps 690 mmHg 98%
    04:00 +21°C° 0 mm 1 mps 690 mmHg 98%
    05:00 +21°C° 0 mm 1 mps 690 mmHg 97%
    06:00 +21°C° 0 mm 1 mps 690 mmHg 96%
    07:00 +21°C° 0 mm 1 mps 691 mmHg 96%
    08:00 +23°C° 0 mm 1 mps 691 mmHg 87%
    09:00 +25°C° 0 mm 1 mps 692 mmHg 79%
    10:00 +27°C° 0 mm 1 mps 693 mmHg 71%
    11:00 +28°C° 0,3 mm 1 mps 692 mmHg 69%
    12:00 +29°C° 0,3 mm 1 mps 692 mmHg 68%
    13:00 +29°C° 0,3 mm 1 mps 691 mmHg 67%
    14:00 +28°C° 1,4 mm 1 mps 690 mmHg 73%
    15:00 +27°C° 1,4 mm 1 mps 690 mmHg 80%
    16:00 +26°C° 1,4 mm 1 mps 689 mmHg 87%
    17:00 +25°C° 0,4 mm 1 mps 690 mmHg 90%
    18:00 +24°C° 0,4 mm 1 mps 690 mmHg 92%
    19:00 +22°C° 0,4 mm 1 mps 690 mmHg 95%
    20:00 +22°C° 0,1 mm 1 mps 691 mmHg 95%
    21:00 +22°C° 0,1 mm 1 mps 691 mmHg 96%
    22:00 +21°C° 0,1 mm 1 mps 691 mmHg 96%
    23:00 +21°C° 0,2 mm 1 mps 691 mmHg 96%

    26 Febrero, Lunes

    Tiempo Temperatura Precipitaciones Viento Presión Humedad
    00:00 +21°C° 0,2 mm 1 mps 691 mmHg 96%
    01:00 +21°C° 0,2 mm 1 mps 690 mmHg 95%
    02:00 +21°C° 0,1 mm 1 mps 690 mmHg 95%
    03:00 +20°C° 0,1 mm 1 mps 690 mmHg 94%
    04:00 +20°C° 0,1 mm 1 mps 690 mmHg 93%
    05:00 +20°C° 0 mm 1 mps 690 mmHg 92%
    06:00 +20°C° 0 mm 1 mps 690 mmHg 92%
    07:00 +20°C° 0 mm 1 mps 690 mmHg 91%
    08:00 +23°C° 0 mm 2 mps 691 mmHg 79%
    09:00 +26°C° 0 mm 2 mps 692 mmHg 68%
    10:00 +29°C° 0 mm 2 mps 692 mmHg 57%
    11:00 +30°C° 0 mm 2 mps 692 mmHg 53%
    12:00 +31°C° 0 mm 2 mps 691 mmHg 48%
    13:00 +32°C° 0 mm 2 mps 691 mmHg 44%
    14:00 +32°C° 0 mm 1 mps 690 mmHg 46%
    15:00 +32°C° 0 mm 1 mps 690 mmHg 49%
    16:00 +32°C° 0 mm 1 mps 690 mmHg 52%
    17:00 +30°C° 0,1 mm 1 mps 690 mmHg 59%
    18:00 +27°C° 0,1 mm 1 mps 690 mmHg 67%
    19:00 +25°C° 0,1 mm 1 mps 690 mmHg 74%
    20:00 +24°C° 0,5 mm 1 mps 690 mmHg 79%
    21:00 +23°C° 0,5 mm 1 mps 691 mmHg 84%
    22:00 +22°C° 0,5 mm 1 mps 691 mmHg 89%
    23:00 +22°C° 0 mm 1 mps 691 mmHg 91%

    27 Febrero, Martes

    Tiempo Temperatura Precipitaciones Viento Presión Humedad
    00:00 +22°C° 0 mm 1 mps 690 mmHg 93%
    01:00 +21°C° 0 mm 1 mps 690 mmHg 95%
    02:00 +21°C° 0 mm 1 mps 690 mmHg 96%
    03:00 +22°C° 0 mm 1 mps 690 mmHg 97%
    04:00 +22°C° 0 mm 1 mps 690 mmHg 98%
    05:00 +22°C° 0 mm 1 mps 690 mmHg 98%
    06:00 +22°C° 0 mm 1 mps 691 mmHg 97%
    07:00 +22°C° 0 mm 1 mps 691 mmHg 97%
    08:00 +24°C° 0 mm 1 mps 691 mmHg 86%
    09:00 +27°C° 0 mm 1 mps 692 mmHg 74%
    10:00 +29°C° 0 mm 1 mps 692 mmHg 63%
    11:00 +30°C° 0,1 mm 1 mps 692 mmHg 58%
    12:00 +31°C° 0,1 mm 1 mps 691 mmHg 53%
    13:00 +33°C° 0,1 mm 1 mps 690 mmHg 48%
    14:00 +32°C° 0,2 mm 2 mps 690 mmHg 53%
    15:00 +31°C° 0,2 mm 2 mps 689 mmHg 58%
    16:00 +30°C° 0,2 mm 2 mps 689 mmHg 63%
    17:00 +28°C° 0,7 mm 2 mps 689 mmHg 73%
    18:00 +26°C° 0,7 mm 1 mps 689 mmHg 83%
    19:00 +23°C° 0,7 mm 1 mps 689 mmHg 93%
    20:00 +23°C° 0,2 mm 1 mps 690 mmHg 95%
    21:00 +23°C° 0,2 mm 1 mps 690 mmHg 96%
    22:00 +22°C° 0,2 mm 1 mps 691 mmHg 97%
    23:00 +22°C° 0,5 mm 1 mps 691 mmHg 98%
    Mostrar más